Time,TemperatureF,DewpointF,PressureIn,WindDirection,WindDirectionDegrees,WindSpeedMPH,WindSpeedGustMPH,Humidity,HourlyPrecipIn,Conditions,Clouds,dailyrainin,SoftwareType,DateUTC
2013-07-11 00:00:00,73.0,72.7,29.90,SW,235,0.0,18.0,99,0.00,,,0.00,Wunderground v.1.15,2013-07-11 04:00:00,
2013-07-11 00:05:00,72.9,72.6,29.89,SW,234,0.0,18.0,99,0.00,,,0.00,Wunderground v.1.15,2013-07-11 04:05:00,
2013-07-11 00:10:00,72.9,72.9,29.89,SW,234,0.0,18.0,100,0.00,,,0.00,Wunderground v.1.15,2013-07-11 04:10:00,
2013-07-11 00:15:00,72.8,72.8,29.89,SW,235,0.0,18.0,100,0.00,,,0.00,Wunderground v.1.15,2013-07-11 04:15:00,
2013-07-11 00:20:00,72.8,72.8,29.89,SW,235,0.0,18.0,100,0.00,,,0.00,Wunderground v.1.15,2013-07-11 04:20:00,
2013-07-11 00:25:00,72.8,72.8,29.89,SW,235,0.0,18.0,100,0.00,,,0.00,Wunderground v.1.15,2013-07-11 04:25:00,
2013-07-11 00:30:00,72.9,72.9,29.90,SW,234,1.0,18.0,100,0.00,,,0.00,Wunderground v.1.15,2013-07-11 04:30:00,
2013-07-11 00:35:00,73.1,72.8,29.91,West,275,2.0,18.0,99,0.00,,,0.00,Wunderground v.1.15,2013-07-11 04:35:00,
2013-07-11 00:45:00,73.1,72.8,29.91,West,275,0.0,18.0,99,0.10,,,0.02,Wunderground v.1.15,2013-07-11 04:45:00,
2013-07-11 00:50:00,73.0,72.7,29.91,West,275,0.0,18.0,99,0.56,,,0.05,Wunderground v.1.15,2013-07-11 04:50:00,
2013-07-11 00:55:00,72.9,72.6,29.90,West,260,1.0,18.0,99,0.18,,,0.08,Wunderground v.1.15,2013-07-11 04:55:00,
2013-07-11 01:05:00,72.8,72.8,29.90,West,261,0.0,18.0,100,0.05,,,0.08,Wunderground v.1.15,2013-07-11 05:05:00,
2013-07-11 01:10:00,72.8,72.8,29.91,SSE,156,1.0,1.0,100,0.00,,,0.08,Wunderground v.1.15,2013-07-11 05:10:00,
2013-07-11 01:15:00,72.8,72.8,29.91,WSW,246,1.0,4.0,100,0.00,,,0.08,Wunderground v.1.15,2013-07-11 05:15:00,
2013-07-11 01:20:00,72.7,72.7,29.90,WSW,246,0.0,18.0,100,0.00,,,0.08,Wunderground v.1.15,2013-07-11 05:20:00,
2013-07-11 01:25:00,72.6,72.6,29.90,WSW,246,0.0,18.0,100,0.00,,,0.08,Wunderground v.1.15,2013-07-11 05:25:00,
2013-07-11 01:35:00,72.6,72.6,29.90,WSW,244,1.0,18.0,100,0.00,,,0.08,Wunderground v.1.15,2013-07-11 05:35:00,
2013-07-11 01:40:00,72.6,72.6,29.90,SW,236,1.0,18.0,100,0.00,,,0.08,Wunderground v.1.15,2013-07-11 05:40:00,
2013-07-11 01:45:00,72.6,72.6,29.89,SW,236,0.0,18.0,100,0.00,,,0.08,Wunderground v.1.15,2013-07-11 05:45:00,
2013-07-11 01:50:00,72.6,72.6,29.89,SW,236,0.0,18.0,100,0.00,,,0.08,Wunderground v.1.15,2013-07-11 05:50:00,
2013-07-11 01:55:00,72.6,72.6,29.89,WSW,239,1.0,18.0,100,0.00,,,0.08,Wunderground v.1.15,2013-07-11 05:55:00,
2013-07-11 02:05:00,72.6,72.6,29.88,WSW,239,1.0,18.0,100,0.00,,,0.08,Wunderground v.1.15,2013-07-11 06:05:00,
2013-07-11 02:10:00,72.6,72.6,29.89,WSW,239,0.0,18.0,100,0.00,,,0.08,Wunderground v.1.15,2013-07-11 06:10:00,
2013-07-11 02:15:00,72.6,72.6,29.88,South,191,1.0,18.0,100,0.00,,,0.08,Wunderground v.1.15,2013-07-11 06:15:00,
2013-07-11 02:20:00,72.6,72.6,29.88,WSW,246,1.0,18.0,100,0.00,,,0.08,Wunderground v.1.15,2013-07-11 06:20:00,
2013-07-11 02:25:00,72.6,72.6,29.87,WSW,241,1.0,18.0,100,0.00,,,0.08,Wunderground v.1.15,2013-07-11 06:25:00,
2013-07-11 02:35:00,72.6,72.6,29.87,SW,233,1.0,18.0,100,0.00,,,0.08,Wunderground v.1.15,2013-07-11 06:35:00,
2013-07-11 02:40:00,72.5,72.5,29.87,SW,233,1.0,1.0,100,0.00,,,0.08,Wunderground v.1.15,2013-07-11 06:40:00,
2013-07-11 02:45:00,72.5,72.5,29.86,SW,233,1.0,2.0,100,0.00,,,0.08,Wunderground v.1.15,2013-07-11 06:45:00,
2013-07-11 02:50:00,72.6,72.6,29.86,SW,233,1.0,1.0,100,0.00,,,0.08,Wunderground v.1.15,2013-07-11 06:50:00,
2013-07-11 03:00:00,72.6,72.6,29.86,SW,233,1.0,18.0,100,0.00,,,0.08,Wunderground v.1.15,2013-07-11 07:00:00,
2013-07-11 03:05:00,72.6,72.6,29.86,SW,233,1.0,18.0,100,0.00,,,0.08,Wunderground v.1.15,2013-07-11 07:05:00,
2013-07-11 03:10:00,72.6,72.6,29.86,SW,234,1.0,18.0,100,0.00,,,0.08,Wunderground v.1.15,2013-07-11 07:10:00,
2013-07-11 03:15:00,72.6,72.6,29.86,WSW,238,1.0,18.0,100,0.00,,,0.08,Wunderground v.1.15,2013-07-11 07:15:00,
2013-07-11 03:25:00,72.6,72.6,29.86,WSW,238,0.0,18.0,100,0.00,,,0.08,Wunderground v.1.15,2013-07-11 07:25:00,
2013-07-11 03:30:00,72.5,72.5,29.86,WSW,238,0.0,18.0,100,0.00,,,0.08,Wunderground v.1.15,2013-07-11 07:30:00,
2013-07-11 03:35:00,72.5,72.5,29.86,WSW,238,0.0,18.0,100,0.00,,,0.08,Wunderground v.1.15,2013-07-11 07:35:00,
2013-07-11 03:40:00,72.6,72.6,29.86,WSW,238,1.0,1.0,100,0.00,,,0.08,Wunderground v.1.15,2013-07-11 07:40:00,
2013-07-11 03:45:00,72.5,72.5,29.86,WSW,238,0.0,18.0,100,0.00,,,0.08,Wunderground v.1.15,2013-07-11 07:45:00,
2013-07-11 03:55:00,72.5,72.5,29.86,WSW,238,0.0,18.0,100,0.00,,,0.08,Wunderground v.1.15,2013-07-11 07:55:00,
2013-07-11 04:00:00,72.5,72.5,29.85,WSW,238,0.0,18.0,100,0.00,,,0.08,Wunderground v.1.15,2013-07-11 08:00:00,
2013-07-11 04:05:00,72.5,72.5,29.85,WSW,238,0.0,18.0,100,0.00,,,0.08,Wunderground v.1.15,2013-07-11 08:05:00,
2013-07-11 04:10:00,72.6,72.6,29.86,WSW,238,0.0,18.0,100,0.00,,,0.08,Wunderground v.1.15,2013-07-11 08:10:00,
2013-07-11 04:20:00,72.6,72.6,29.86,WSW,238,0.0,18.0,100,0.00,,,0.08,Wunderground v.1.15,2013-07-11 08:20:00,
2013-07-11 04:25:00,72.6,72.6,29.86,WSW,238,0.0,18.0,100,0.00,,,0.08,Wunderground v.1.15,2013-07-11 08:25:00,
2013-07-11 04:30:00,72.6,72.6,29.87,WSW,238,0.0,18.0,100,0.00,,,0.08,Wunderground v.1.15,2013-07-11 08:30:00,
2013-07-11 04:35:00,72.6,72.6,29.87,WSW,238,0.0,18.0,100,0.00,,,0.08,Wunderground v.1.15,2013-07-11 08:35:00,
2013-07-11 04:40:00,72.6,72.6,29.87,WSW,238,0.0,18.0,100,0.00,,,0.08,Wunderground v.1.15,2013-07-11 08:40:00,
2013-07-11 04:50:00,72.6,72.6,29.87,WSW,238,0.0,18.0,100,0.00,,,0.08,Wunderground v.1.15,2013-07-11 08:50:00,
2013-07-11 04:55:00,72.6,72.6,29.87,WSW,238,0.0,18.0,100,0.00,,,0.08,Wunderground v.1.15,2013-07-11 08:55:00,
2013-07-11 05:00:00,72.5,72.5,29.87,WSW,238,0.0,18.0,100,0.00,,,0.08,Wunderground v.1.15,2013-07-11 09:00:00,
2013-07-11 05:05:00,72.5,72.5,29.88,WSW,238,0.0,18.0,100,0.00,,,0.08,Wunderground v.1.15,2013-07-11 09:05:00,
2013-07-11 05:15:00,72.5,72.5,29.88,WSW,238,0.0,18.0,100,0.00,,,0.08,Wunderground v.1.15,2013-07-11 09:15:00,
2013-07-11 05:20:00,72.5,72.5,29.88,WSW,238,0.0,18.0,100,0.00,,,0.08,Wunderground v.1.15,2013-07-11 09:20:00,
2013-07-11 05:25:00,72.5,72.5,29.88,WSW,238,0.0,18.0,100,0.00,,,0.08,Wunderground v.1.15,2013-07-11 09:25:00,
2013-07-11 05:30:00,72.5,72.5,29.88,WSW,238,0.0,18.0,100,0.00,,,0.08,Wunderground v.1.15,2013-07-11 09:30:00,
2013-07-11 05:35:00,72.6,72.6,29.88,WSW,238,1.0,18.0,100,0.00,,,0.08,Wunderground v.1.15,2013-07-11 09:35:00,
2013-07-11 05:45:00,72.6,72.6,29.89,WSW,238,1.0,18.0,100,0.00,,,0.08,Wunderground v.1.15,2013-07-11 09:45:00,
2013-07-11 05:50:00,72.6,72.6,29.88,WSW,238,1.0,1.0,100,0.00,,,0.08,Wunderground v.1.15,2013-07-11 09:50:00,
2013-07-11 05:55:00,72.7,72.7,29.89,WSW,238,0.0,18.0,100,0.00,,,0.08,Wunderground v.1.15,2013-07-11 09:55:00,
2013-07-11 06:00:00,72.7,72.7,29.89,WSW,238,0.0,18.0,100,0.00,,,0.08,Wunderground v.1.15,2013-07-11 10:00:00,
2013-07-11 06:10:00,72.8,72.8,29.90,WSW,238,0.0,18.0,100,0.00,,,0.08,Wunderground v.1.15,2013-07-11 10:10:00,
2013-07-11 06:15:00,72.8,72.8,29.90,WSW,238,0.0,18.0,100,0.00,,,0.08,Wunderground v.1.15,2013-07-11 10:15:00,
2013-07-11 06:20:00,72.8,72.8,29.91,WSW,238,0.0,18.0,100,0.00,,,0.08,Wunderground v.1.15,2013-07-11 10:20:00,
2013-07-11 06:25:00,72.9,72.9,29.91,WSW,238,0.0,18.0,100,0.00,,,0.08,Wunderground v.1.15,2013-07-11 10:25:00,
2013-07-11 06:30:00,72.9,72.9,29.91,WSW,238,0.0,18.0,100,0.00,,,0.08,Wunderground v.1.15,2013-07-11 10:30:00,
2013-07-11 06:40:00,73.0,73.0,29.91,WSW,238,0.0,18.0,100,0.00,,,0.08,Wunderground v.1.15,2013-07-11 10:40:00,
2013-07-11 06:45:00,73.0,73.0,29.91,WSW,238,0.0,18.0,100,0.00,,,0.08,Wunderground v.1.15,2013-07-11 10:45:00,
2013-07-11 06:50:00,73.0,73.0,29.91,WSW,238,0.0,18.0,100,0.00,,,0.08,Wunderground v.1.15,2013-07-11 10:50:00,
2013-07-11 06:55:00,73.1,73.1,29.91,WSW,238,1.0,18.0,100,0.00,,,0.08,Wunderground v.1.15,2013-07-11 10:55:00,
2013-07-11 07:00:00,73.1,73.1,29.91,WSW,238,1.0,1.0,100,0.00,,,0.08,Wunderground v.1.15,2013-07-11 11:00:00,
2013-07-11 07:10:00,73.1,73.1,29.91,WSW,238,1.0,1.0,100,0.00,,,0.08,Wunderground v.1.15,2013-07-11 11:10:00,
2013-07-11 07:15:00,73.2,73.2,29.92,WSW,238,1.0,3.0,100,0.00,,,0.08,Wunderground v.1.15,2013-07-11 11:15:00,
2013-07-11 07:20:00,73.2,73.2,29.92,WSW,238,1.0,1.0,100,0.00,,,0.08,Wunderground v.1.15,2013-07-11 11:20:00,
2013-07-11 07:25:00,73.3,73.3,29.92,WSW,238,0.0,18.0,100,0.00,,,0.08,Wunderground v.1.15,2013-07-11 11:25:00,
2013-07-11 07:35:00,73.3,73.3,29.92,WSW,238,0.0,18.0,100,0.00,,,0.08,Wunderground v.1.15,2013-07-11 11:35:00,
2013-07-11 07:40:00,73.4,73.4,29.92,WSW,238,0.0,18.0,100,0.00,,,0.08,Wunderground v.1.15,2013-07-11 11:40:00,
2013-07-11 07:45:00,73.4,73.4,29.92,WSW,238,0.0,18.0,100,0.00,,,0.08,Wunderground v.1.15,2013-07-11 11:45:00,
2013-07-11 07:50:00,73.4,73.4,29.92,WSW,238,0.0,18.0,100,0.00,,,0.08,Wunderground v.1.15,2013-07-11 11:50:00,
2013-07-11 08:00:00,73.5,73.5,29.92,WSW,238,1.0,1.0,100,0.00,,,0.08,Wunderground v.1.15,2013-07-11 12:00:00,
2013-07-11 08:05:00,73.5,73.5,29.92,WSW,238,0.0,18.0,100,0.00,,,0.08,Wunderground v.1.15,2013-07-11 12:05:00,
2013-07-11 08:15:00,73.7,73.7,29.93,WSW,246,0.0,18.0,100,0.00,,,0.08,Wunderground v.1.15,2013-07-11 12:15:00,
2013-07-11 08:20:00,73.7,73.7,29.93,WSW,246,0.0,18.0,100,0.00,,,0.08,Wunderground v.1.15,2013-07-11 12:20:00,
2013-07-11 08:30:00,73.8,73.8,29.93,WSW,247,0.0,18.0,100,0.00,,,0.08,Wunderground v.1.15,2013-07-11 12:30:00,
2013-07-11 08:35:00,73.8,73.8,29.93,WSW,247,0.0,18.0,100,0.00,,,0.08,Wunderground v.1.15,2013-07-11 12:35:00,
2013-07-11 08:40:00,73.8,73.8,29.92,WSW,247,0.0,18.0,100,0.00,,,0.08,Wunderground v.1.15,2013-07-11 12:40:00,
2013-07-11 08:45:00,73.9,73.9,29.93,WSW,247,0.0,18.0,100,0.00,,,0.08,Wunderground v.1.15,2013-07-11 12:45:00,
2013-07-11 08:50:00,74.0,74.0,29.92,WSW,247,0.0,18.0,100,0.00,,,0.08,Wunderground v.1.15,2013-07-11 12:50:00,
2013-07-11 09:00:00,74.0,74.0,29.93,WSW,247,0.0,18.0,100,0.00,,,0.08,Wunderground v.1.15,2013-07-11 13:00:00,
2013-07-11 09:05:00,74.1,74.1,29.93,WSW,247,0.0,18.0,100,0.00,,,0.08,Wunderground v.1.15,2013-07-11 13:05:00,
2013-07-11 09:10:00,74.1,74.1,29.93,WSW,247,0.0,18.0,100,0.00,,,0.08,Wunderground v.1.15,2013-07-11 13:10:00,
2013-07-11 09:15:00,74.1,74.1,29.93,WSW,246,0.0,18.0,100,0.00,,,0.08,Wunderground v.1.15,2013-07-11 13:15:00,
2013-07-11 09:25:00,74.2,74.2,29.93,WSW,246,0.0,18.0,100,0.00,,,0.08,Wunderground v.1.15,2013-07-11 13:25:00,
2013-07-11 09:35:00,74.1,73.8,29.93,WSW,247,0.0,18.0,99,0.00,,,0.08,Wunderground v.1.15,2013-07-11 13:35:00,
2013-07-11 09:40:00,74.1,73.5,29.93,WSW,246,0.0,18.0,98,0.00,,,0.08,Wunderground v.1.15,2013-07-11 13:40:00,
2013-07-11 09:45:00,74.1,72.9,29.93,West,265,1.0,18.0,96,0.00,,,0.08,Wunderground v.1.15,2013-07-11 13:45:00,
2013-07-11 09:55:00,74.2,72.7,29.93,West,271,1.0,18.0,95,0.00,,,0.09,Wunderground v.1.15,2013-07-11 13:55:00,
2013-07-11 10:00:00,74.1,72.3,29.93,WNW,284,1.0,18.0,94,0.00,,,0.09,Wunderground v.1.15,2013-07-11 14:00:00,
2013-07-11 10:05:00,74.0,71.8,29.93,WNW,284,0.0,18.0,93,0.00,,,0.09,Wunderground v.1.15,2013-07-11 14:05:00,
2013-07-11 10:10:00,74.0,71.8,29.92,WNW,284,1.0,1.0,93,0.00,,,0.09,Wunderground v.1.15,2013-07-11 14:10:00,
2013-07-11 10:20:00,74.0,71.8,29.93,WNW,290,1.0,1.0,93,0.00,,,0.09,Wunderground v.1.15,2013-07-11 14:20:00,
2013-07-11 10:25:00,73.9,71.4,29.93,NW,309,1.0,18.0,92,0.00,,,0.09,Wunderground v.1.15,2013-07-11 14:25:00,
2013-07-11 10:30:00,73.9,71.4,29.93,NW,306,1.0,18.0,92,0.00,,,0.09,Wunderground v.1.15,2013-07-11 14:30:00,
2013-07-11 10:35:00,74.0,71.2,29.93,WNW,302,1.0,18.0,91,0.00,,,0.09,Wunderground v.1.15,2013-07-11 14:35:00,
2013-07-11 10:40:00,74.1,71.3,29.93,WNW,302,2.0,2.0,91,0.00,,,0.09,Wunderground v.1.15,2013-07-11 14:40:00,
2013-07-11 10:50:00,74.3,71.5,29.93,WNW,301,2.0,2.0,91,0.00,,,0.09,Wunderground v.1.15,2013-07-11 14:50:00,
2013-07-11 10:55:00,74.4,71.6,29.93,WNW,301,2.0,18.0,91,0.00,,,0.09,Wunderground v.1.15,2013-07-11 14:55:00,
2013-07-11 11:05:00,74.8,72.0,29.93,WNW,301,0.0,18.0,91,0.00,,,0.09,Wunderground v.1.15,2013-07-11 15:05:00,
2013-07-11 11:15:00,75.7,73.2,29.94,WNW,301,0.0,18.0,92,0.00,,,0.09,Wunderground v.1.15,2013-07-11 15:15:00,
2013-07-11 11:20:00,76.4,73.6,29.93,WNW,301,1.0,1.0,91,0.00,,,0.09,Wunderground v.1.15,2013-07-11 15:20:00,
2013-07-11 11:25:00,77.3,73.5,29.94,WNW,300,1.0,18.0,88,0.00,,,0.09,Wunderground v.1.15,2013-07-11 15:25:00,
2013-07-11 11:30:00,77.8,73.3,29.94,WNW,301,1.0,1.0,86,0.00,,,0.09,Wunderground v.1.15,2013-07-11 15:30:00,
2013-07-11 11:35:00,79.1,74.5,29.93,WNW,301,0.0,18.0,86,0.00,,,0.09,Wunderground v.1.15,2013-07-11 15:35:00,
2013-07-11 11:45:00,80.2,74.6,29.93,NW,304,2.0,18.0,83,0.00,,,0.09,Wunderground v.1.15,2013-07-11 15:45:00,
2013-07-11 11:50:00,80.6,73.9,29.93,NW,304,2.0,2.0,80,0.00,,,0.09,Wunderground v.1.15,2013-07-11 15:50:00,
2013-07-11 11:55:00,80.8,72.9,29.93,WNW,303,1.0,18.0,77,0.00,,,0.09,Wunderground v.1.15,2013-07-11 15:55:00,
2013-07-11 12:00:00,80.9,73.0,29.93,WNW,303,1.0,1.0,77,0.00,,,0.09,Wunderground v.1.15,2013-07-11 16:00:00,
2013-07-11 12:15:00,81.2,73.3,29.93,WNW,303,0.0,18.0,77,0.00,,,0.09,Wunderground v.1.15,2013-07-11 16:15:00,
2013-07-11 12:20:00,81.6,74.1,29.93,WNW,303,0.0,18.0,78,0.00,,,0.09,Wunderground v.1.15,2013-07-11 16:20:00,
2013-07-11 12:25:00,81.2,73.3,29.93,WNW,303,1.0,18.0,77,0.00,,,0.09,Wunderground v.1.15,2013-07-11 16:25:00,
2013-07-11 12:35:00,81.5,73.6,29.93,WNW,303,0.0,18.0,77,0.00,,,0.09,Wunderground v.1.15,2013-07-11 16:35:00,
2013-07-11 12:40:00,81.8,73.1,29.93,WNW,303,0.0,18.0,75,0.00,,,0.09,Wunderground v.1.15,2013-07-11 16:40:00,
2013-07-11 12:45:00,81.7,73.4,29.93,WNW,303,0.0,18.0,76,0.00,,,0.09,Wunderground v.1.15,2013-07-11 16:45:00,
2013-07-11 13:00:00,82.3,73.6,29.92,WNW,303,0.0,18.0,75,0.00,,,0.09,Wunderground v.1.15,2013-07-11 17:00:00,
2013-07-11 13:05:00,82.5,74.2,29.93,WNW,303,0.0,18.0,76,0.00,,,0.09,Wunderground v.1.15,2013-07-11 17:05:00,
2013-07-11 13:10:00,82.6,74.3,29.93,WNW,303,1.0,1.0,76,0.00,,,0.09,Wunderground v.1.15,2013-07-11 17:10:00,
2013-07-11 13:20:00,82.6,74.3,29.92,WNW,303,2.0,2.0,76,0.00,,,0.09,Wunderground v.1.15,2013-07-11 17:20:00,
2013-07-11 13:25:00,82.8,74.5,29.92,WNW,303,0.0,18.0,76,0.00,,,0.09,Wunderground v.1.15,2013-07-11 17:25:00,
2013-07-11 13:35:00,83.1,73.1,29.92,WNW,298,2.0,18.0,72,0.00,,,0.09,Wunderground v.1.15,2013-07-11 17:35:00,
2013-07-11 13:40:00,83.3,73.3,29.92,NW,309,2.0,2.0,72,0.00,,,0.09,Wunderground v.1.15,2013-07-11 17:40:00,
2013-07-11 13:45:00,83.3,73.3,29.92,WNW,300,2.0,18.0,72,0.00,,,0.09,Wunderground v.1.15,2013-07-11 17:45:00,
2013-07-11 13:50:00,84.1,74.1,29.91,WNW,300,1.0,18.0,72,0.00,,,0.09,Wunderground v.1.15,2013-07-11 17:50:00,
2013-07-11 14:00:00,83.8,73.8,29.91,WNW,296,3.0,18.0,72,0.00,,,0.09,Wunderground v.1.15,2013-07-11 18:00:00,
2013-07-11 14:05:00,83.9,73.5,29.91,WNW,296,4.0,18.0,71,0.00,,,0.09,Wunderground v.1.15,2013-07-11 18:05:00,
2013-07-11 14:10:00,84.5,74.1,29.91,WNW,296,2.0,18.0,71,0.00,,,0.09,Wunderground v.1.15,2013-07-11 18:10:00,
2013-07-11 14:15:00,84.7,75.1,29.91,WNW,295,1.0,18.0,73,0.00,,,0.09,Wunderground v.1.15,2013-07-11 18:15:00,
2013-07-11 14:25:00,85.0,74.1,29.91,WNW,297,2.0,18.0,70,0.00,,,0.09,Wunderground v.1.15,2013-07-11 18:25:00,
2013-07-11 14:30:00,85.9,73.7,29.91,WNW,283,1.0,18.0,67,0.00,,,0.09,Wunderground v.1.15,2013-07-11 18:30:00,
2013-07-11 14:45:00,85.2,73.0,29.91,WNW,294,2.0,4.0,67,0.00,,,0.09,Wunderground v.1.15,2013-07-11 18:45:00,
2013-07-11 14:50:00,85.0,73.7,29.91,WNW,296,2.0,18.0,69,0.00,,,0.09,Wunderground v.1.15,2013-07-11 18:50:00,
2013-07-11 15:00:00,83.7,72.4,29.91,WNW,298,3.0,3.0,69,0.00,,,0.09,Wunderground v.1.15,2013-07-11 19:00:00,
2013-07-11 15:10:00,84.5,73.6,29.91,WNW,298,0.0,18.0,70,0.00,,,0.09,Wunderground v.1.15,2013-07-11 19:10:00,
2013-07-11 15:25:00,85.7,73.5,29.90,WNW,298,0.0,18.0,67,0.00,,,0.09,Wunderground v.1.15,2013-07-11 19:25:00,
2013-07-11 15:30:00,85.4,74.1,29.90,WNW,298,0.0,18.0,69,0.00,,,0.09,Wunderground v.1.15,2013-07-11 19:30:00,
2013-07-11 15:35:00,85.1,74.2,29.90,WNW,298,0.0,18.0,70,0.00,,,0.09,Wunderground v.1.15,2013-07-11 19:35:00,
2013-07-11 15:40:00,85.5,74.2,29.90,WNW,298,0.0,18.0,69,0.00,,,0.09,Wunderground v.1.15,2013-07-11 19:40:00,
2013-07-11 15:50:00,85.2,73.9,29.90,WNW,298,0.0,18.0,69,0.00,,,0.09,Wunderground v.1.15,2013-07-11 19:50:00,
2013-07-11 15:55:00,85.2,74.7,29.89,WNW,298,0.0,18.0,71,0.00,,,0.09,Wunderground v.1.15,2013-07-11 19:55:00,
2013-07-11 16:00:00,85.0,75.0,29.90,WNW,298,0.0,18.0,72,0.00,,,0.09,Wunderground v.1.15,2013-07-11 20:00:00,
2013-07-11 16:05:00,84.9,74.0,29.89,WNW,298,1.0,18.0,70,0.00,,,0.09,Wunderground v.1.15,2013-07-11 20:05:00,
2013-07-11 16:10:00,84.9,75.3,29.89,WNW,298,1.0,1.0,73,0.00,,,0.09,Wunderground v.1.15,2013-07-11 20:10:00,
2013-07-11 16:15:00,84.5,74.5,29.89,WNW,298,0.0,18.0,72,0.00,,,0.09,Wunderground v.1.15,2013-07-11 20:15:00,
2013-07-11 16:25:00,84.4,74.8,29.89,WNW,298,0.0,18.0,73,0.00,,,0.09,Wunderground v.1.15,2013-07-11 20:25:00,
2013-07-11 16:30:00,85.2,75.1,29.89,WNW,298,0.0,18.0,72,0.00,,,0.09,Wunderground v.1.15,2013-07-11 20:30:00,
2013-07-11 16:35:00,85.6,75.9,29.89,WNW,298,0.0,18.0,73,0.00,,,0.09,Wunderground v.1.15,2013-07-11 20:35:00,
2013-07-11 16:40:00,85.6,75.1,29.90,WNW,298,0.0,18.0,71,0.00,,,0.09,Wunderground v.1.15,2013-07-11 20:40:00,
2013-07-11 16:45:00,85.4,75.8,29.89,WNW,298,0.0,18.0,73,0.00,,,0.09,Wunderground v.1.15,2013-07-11 20:45:00,
2013-07-11 17:00:00,84.6,75.4,29.90,WNW,298,0.0,18.0,74,0.00,,,0.09,Wunderground v.1.15,2013-07-11 21:00:00,
2013-07-11 17:05:00,84.3,75.1,29.90,WNW,298,0.0,18.0,74,0.00,,,0.09,Wunderground v.1.15,2013-07-11 21:05:00,
2013-07-11 17:10:00,84.1,74.9,29.89,WNW,298,0.0,18.0,74,0.00,,,0.09,Wunderground v.1.15,2013-07-11 21:10:00,
2013-07-11 17:15:00,84.0,74.8,29.89,WNW,298,0.0,18.0,74,0.00,,,0.09,Wunderground v.1.15,2013-07-11 21:15:00,
2013-07-11 17:25:00,84.3,75.5,29.89,WNW,298,0.0,18.0,75,0.00,,,0.09,Wunderground v.1.15,2013-07-11 21:25:00,
2013-07-11 17:30:00,84.3,75.5,29.89,WNW,298,0.0,18.0,75,0.00,,,0.09,Wunderground v.1.15,2013-07-11 21:30:00,
2013-07-11 17:40:00,83.9,75.9,29.89,WNW,298,0.0,18.0,77,0.00,,,0.09,Wunderground v.1.15,2013-07-11 21:40:00,
2013-07-11 17:45:00,83.5,75.1,29.89,WNW,298,0.0,18.0,76,0.00,,,0.09,Wunderground v.1.15,2013-07-11 21:45:00,
2013-07-11 17:50:00,83.2,74.4,29.88,WNW,298,0.0,18.0,75,0.00,,,0.09,Wunderground v.1.15,2013-07-11 21:50:00,
2013-07-11 17:55:00,83.2,74.4,29.88,WNW,298,0.0,18.0,75,0.00,,,0.09,Wunderground v.1.15,2013-07-11 21:55:00,
2013-07-11 18:00:00,83.3,74.1,29.88,WNW,298,0.0,18.0,74,0.00,,,0.09,Wunderground v.1.15,2013-07-11 22:00:00,
2013-07-11 18:10:00,83.3,74.1,29.89,WNW,298,0.0,18.0,74,0.00,,,0.09,Wunderground v.1.15,2013-07-11 22:10:00,
2013-07-11 18:15:00,83.3,74.5,29.88,WNW,298,0.0,18.0,75,0.00,,,0.09,Wunderground v.1.15,2013-07-11 22:15:00,
2013-07-11 18:20:00,83.2,74.8,29.89,WNW,298,0.0,18.0,76,0.00,,,0.09,Wunderground v.1.15,2013-07-11 22:20:00,
2013-07-11 18:25:00,82.8,74.8,29.89,WNW,298,0.0,18.0,77,0.00,,,0.09,Wunderground v.1.15,2013-07-11 22:25:00,
2013-07-11 18:30:00,82.4,74.1,29.89,WNW,298,0.0,18.0,76,0.00,,,0.09,Wunderground v.1.15,2013-07-11 22:30:00,
2013-07-11 18:40:00,82.1,73.8,29.90,WNW,298,0.0,18.0,76,0.00,,,0.09,Wunderground v.1.15,2013-07-11 22:40:00,
2013-07-11 18:45:00,82.1,74.2,29.90,WNW,298,0.0,18.0,77,0.00,,,0.09,Wunderground v.1.15,2013-07-11 22:45:00,
2013-07-11 18:50:00,82.0,74.1,29.90,WNW,298,0.0,18.0,77,0.00,,,0.09,Wunderground v.1.15,2013-07-11 22:50:00,
2013-07-11 18:55:00,82.0,73.7,29.90,WNW,298,0.0,18.0,76,0.00,,,0.09,Wunderground v.1.15,2013-07-11 22:55:00,
2013-07-11 19:00:00,82.1,73.8,29.90,WNW,298,0.0,18.0,76,0.00,,,0.09,Wunderground v.1.15,2013-07-11 23:00:00,
2013-07-11 19:10:00,81.8,74.3,29.90,WNW,298,0.0,18.0,78,0.00,,,0.09,Wunderground v.1.15,2013-07-11 23:10:00,
2013-07-11 19:15:00,81.7,74.5,29.90,WNW,298,0.0,18.0,79,0.00,,,0.09,Wunderground v.1.15,2013-07-11 23:15:00,
2013-07-11 19:20:00,81.6,74.8,29.91,WNW,298,0.0,18.0,80,0.00,,,0.09,Wunderground v.1.15,2013-07-11 23:20:00,
2013-07-11 19:25:00,81.5,75.1,29.91,WNW,298,0.0,18.0,81,0.00,,,0.09,Wunderground v.1.15,2013-07-11 23:25:00,
2013-07-11 19:35:00,81.2,74.8,29.91,WNW,298,0.0,18.0,81,0.00,,,0.09,Wunderground v.1.15,2013-07-11 23:35:00,
2013-07-11 19:40:00,81.1,74.0,29.91,WNW,298,0.0,18.0,79,0.00,,,0.09,Wunderground v.1.15,2013-07-11 23:40:00,
2013-07-11 19:50:00,81.1,73.6,29.91,WNW,298,0.0,18.0,78,0.00,,,0.09,Wunderground v.1.15,2013-07-11 23:50:00,
2013-07-11 20:00:00,81.0,73.9,29.91,WNW,298,0.0,18.0,79,0.00,,,0.09,Wunderground v.1.15,2013-07-12 00:00:00,
2013-07-11 20:05:00,81.0,73.9,29.91,WNW,298,0.0,18.0,79,0.00,,,0.09,Wunderground v.1.15,2013-07-12 00:05:00,
2013-07-11 20:10:00,80.9,73.8,29.91,WNW,298,0.0,18.0,79,0.00,,,0.09,Wunderground v.1.15,2013-07-12 00:10:00,
2013-07-11 20:15:00,80.9,73.8,29.91,WNW,298,0.0,18.0,79,0.00,,,0.09,Wunderground v.1.15,2013-07-12 00:15:00,
2013-07-11 20:20:00,80.9,73.8,29.91,WNW,298,0.0,18.0,79,0.00,,,0.09,Wunderground v.1.15,2013-07-12 00:20:00,
2013-07-11 20:30:00,80.8,73.3,29.91,WNW,298,0.0,18.0,78,0.00,,,0.09,Wunderground v.1.15,2013-07-12 00:30:00,
2013-07-11 20:35:00,80.8,74.0,29.90,WNW,298,0.0,18.0,80,0.00,,,0.09,Wunderground v.1.15,2013-07-12 00:35:00,
2013-07-11 20:40:00,80.3,74.3,29.90,WNW,298,0.0,18.0,82,0.00,,,0.09,Wunderground v.1.15,2013-07-12 00:40:00,
2013-07-11 20:45:00,79.8,73.4,29.90,North,360,0.0,18.0,81,0.00,,,0.09,Wunderground v.1.15,2013-07-12 00:45:00,
2013-07-11 20:55:00,79.7,73.3,29.90,NNE,14,0.0,18.0,81,0.00,,,0.09,Wunderground v.1.15,2013-07-12 00:55:00,
2013-07-11 21:00:00,79.6,73.6,29.91,NNE,14,0.0,18.0,82,0.00,,,0.09,Wunderground v.1.15,2013-07-12 01:00:00,
2013-07-11 21:05:00,79.6,73.6,29.91,NNE,14,0.0,18.0,82,0.00,,,0.09,Wunderground v.1.15,2013-07-12 01:05:00,
2013-07-11 21:10:00,79.5,73.5,29.90,NNE,14,0.0,18.0,82,0.00,,,0.09,Wunderground v.1.15,2013-07-12 01:10:00,
2013-07-11 21:15:00,79.3,74.0,29.91,East,87,0.0,18.0,84,0.00,,,0.09,Wunderground v.1.15,2013-07-12 01:15:00,
2013-07-11 21:25:00,79.2,74.3,29.91,ENE,75,0.0,18.0,85,0.00,,,0.09,Wunderground v.1.15,2013-07-12 01:25:00,
2013-07-11 21:30:00,79.2,74.6,29.91,ENE,75,0.0,18.0,86,0.00,,,0.09,Wunderground v.1.15,2013-07-12 01:30:00,
2013-07-11 21:35:00,79.0,74.5,29.91,ENE,75,1.0,18.0,86,0.00,,,0.09,Wunderground v.1.15,2013-07-12 01:35:00,
2013-07-11 21:45:00,78.7,74.5,29.92,East,79,1.0,18.0,87,0.00,,,0.09,Wunderground v.1.15,2013-07-12 01:45:00,
2013-07-11 21:55:00,78.7,74.8,29.92,East,79,1.0,18.0,88,0.00,,,0.09,Wunderground v.1.15,2013-07-12 01:55:00,
2013-07-11 22:00:00,78.6,75.1,29.92,East,79,1.0,1.0,89,0.00,,,0.09,Wunderground v.1.15,2013-07-12 02:00:00,
2013-07-11 22:05:00,78.5,75.0,29.91,East,79,0.0,18.0,89,0.00,,,0.09,Wunderground v.1.15,2013-07-12 02:05:00,
2013-07-11 22:10:00,78.3,75.1,29.91,East,88,1.0,1.0,90,0.00,,,0.09,Wunderground v.1.15,2013-07-12 02:10:00,
2013-07-11 22:25:00,78.1,75.3,29.91,East,88,0.0,18.0,91,0.00,,,0.09,Wunderground v.1.15,2013-07-12 02:25:00,
2013-07-11 22:30:00,78.0,75.2,29.91,SSE,149,0.0,18.0,91,0.00,,,0.09,Wunderground v.1.15,2013-07-12 02:30:00,
2013-07-11 22:35:00,77.9,75.1,29.90,SSE,149,0.0,18.0,91,0.00,,,0.09,Wunderground v.1.15,2013-07-12 02:35:00,
2013-07-11 22:40:00,77.8,75.0,29.90,SSE,149,0.0,18.0,91,0.00,,,0.09,Wunderground v.1.15,2013-07-12 02:40:00,
2013-07-11 22:50:00,77.7,74.9,29.91,SSE,149,0.0,18.0,91,0.00,,,0.09,Wunderground v.1.15,2013-07-12 02:50:00,
2013-07-11 22:55:00,77.6,74.8,29.91,SSE,149,0.0,18.0,91,0.00,,,0.09,Wunderground v.1.15,2013-07-12 02:55:00,
2013-07-11 23:05:00,77.5,75.0,29.91,SSW,192,0.0,18.0,92,0.00,,,0.09,Wunderground v.1.15,2013-07-12 03:05:00,
2013-07-11 23:10:00,77.4,74.9,29.91,SSW,192,0.0,18.0,92,0.00,,,0.09,Wunderground v.1.15,2013-07-12 03:10:00,
2013-07-11 23:20:00,77.3,74.8,29.91,SSW,192,0.0,18.0,92,0.00,,,0.09,Wunderground v.1.15,2013-07-12 03:20:00,
2013-07-11 23:25:00,77.2,74.7,29.91,SSW,192,0.0,18.0,92,0.00,,,0.09,Wunderground v.1.15,2013-07-12 03:25:00,
2013-07-11 23:30:00,77.1,74.6,29.91,SSW,192,0.0,18.0,92,0.00,,,0.09,Wunderground v.1.15,2013-07-12 03:30:00,
2013-07-11 23:35:00,77.1,74.9,29.91,SSW,192,0.0,18.0,93,0.00,,,0.09,Wunderground v.1.15,2013-07-12 03:35:00,
2013-07-11 23:45:00,77.0,74.8,29.90,SSW,192,0.0,18.0,93,0.00,,,0.09,Wunderground v.1.15,2013-07-12 03:45:00,
2013-07-11 23:50:00,76.9,74.7,29.91,SSW,192,0.0,18.0,93,0.00,,,0.09,Wunderground v.1.15,2013-07-12 03:50:00,
2013-07-11 23:55:00,76.8,74.9,29.90,SSW,192,0.0,18.0,94,0.00,,,0.09,Wunderground v.1.15,2013-07-12 03:55:00,